Location: Nelson
(41.2830°S, 173.2830°E)
Time: 06:14:51
(UTC+12:00)

Cosmos 1417 Rocket - Pass Details

Date: 14 May 2021
Orbit: 951 x 999 km, 83.0° (Epoch: 16 June)

Event Time Altitude Azimuth Distance (km) Brightness Sun altitude
Rises 18:58:02 0° 185° (S) 3,758 7.5 -18.6°
Reaches altitude 10° 19:00:37 10° 182° (S) 2,800 6.8 -19.1°
Maximum altitude 19:07:02 67° 99° (E) 1,085 4.4 -20.3°
Drops below altitude 10° 19:13:19 10° 17° (NNE) 2,747 6.7 -21.5°
Sets 19:15:50 0° 14° (NNE) 3,681 7.4 -21.9°
